Location: Castelnau
(43.6639°N, 0.8431°W)
Time: 17:22:19
(UTC+00:00)

Cosmos 2184 Rocket - Pass Details

Date: 13 January 2026
Orbit: 958 x 1001 km, 82.9° (Epoch: 10 February)

Event Time Altitude Azimuth Distance (km) Brightness Sun altitude
Rises 06:07:45 0° 194° (SSW) 3,660 7.0 -15.4°
Reaches altitude 10° 06:10:17 10° 197° (SSW) 2,711 6.3 -14.9°
Maximum altitude 06:16:27 68° 280° (W) 1,041 3.9 -13.9°
Drops below altitude 10° 06:22:37 10° 3° (N) 2,705 6.2 -12.8°
Sets 06:25:09 0° 6° (N) 3,653 6.9 -12.4°
